Location: Castle Rising
(52.8000°N, 0.4833°E)
Time: 10:39:00
(UTC+00:00)

Daily predictions for brighter satellites

Satellite Brightness Start Highest point End
(mag) Time Altitude Azimuth Time Altitude Azimuth Time Altitude Azimuth
CZ-4B R/B 3.6 20:22:36 10° S 20:28:14 71° WSW 20:33:50 10° NNW
CZ-4C R/B 2.3 20:25:09 10° SW 20:29:34 71° NW 20:35:23 10° NE
CZ-4B R/B 4.2 20:26:21 10° SE 20:30:44 37° ENE 20:35:11 10° N
Cosmos 1992 Rocket 4.3 20:26:20 10° S 20:31:18 47° ESE 20:36:17 10° NE
ISS -3.8 20:32:41 10° WSW 20:36:00 64° S 20:39:19 10° E
Cosmos 2219 Rocket 3.4 20:31:37 10° NNW 20:36:45 34° NE 20:41:51 10° ESE
Cosmos 1437 Rocket 3.6 20:37:22 10° SSE 20:40:27 28° E 20:43:34 10° NNE
SL-08 R/B 3.3 20:38:58 10° NNE 20:43:49 78° ESE 20:48:34 10° SSW
DEBRIS 3.4 20:43:07 10° WSW 20:46:02 52° SSE 20:54:09 10° E
Cosmos 1626 Rocket 3.6 20:41:40 10° N 20:46:02 76° E 20:50:25 10° SSE
Cosmos 1743 4.3 20:44:05 10° NW 20:46:37 25° W 20:49:09 10° SSW
Cosmos 2098 Rocket 4.3 20:44:39 10° SE 20:48:26 25° E 20:51:50 10° NE
Cosmos 1452 Rocket 4.4 20:43:27 10° SW 20:48:35 56° WNW 20:53:46 10° NNE
NOSS 3-3 (A) 3.7 20:44:02 10° SSW 20:49:14 66° SE 20:55:31 10° NE
Terra 3.1 20:48:25 10° SSW 20:52:47 38° W 20:57:13 10° NNW
Cosmos 2151 2.9 20:49:55 10° N 20:54:03 67° ENE 20:58:07 10° SSE
Cosmos 2322 Rocket 2.5 20:49:48 10° NNW 20:55:26 61° NE 21:00:46 11° SE
Cosmos 1486 Rocket 4.3 20:50:28 10° NNW 20:55:41 59° ENE 21:00:35 12° SE
Helios 1A Rocket 3.8 20:52:47 10° N 20:55:47 39° WNW 20:58:44 10° SW
Cosmos 1302 Rocket 4.3 20:52:11 10° SSW 20:57:21 71° WNW 21:02:34 10° NNE
Cosmos 1607 4.1 20:52:14 10° SW 20:58:25 82° NW 21:04:45 10° NE
IRS-1C Rocket 4.3 20:53:40 10° SSE 20:58:50 60° ENE 21:04:02 10° N
Cosmos 909 Rocket 4.0 20:53:27 10° SSW 20:59:42 72° SE 21:06:16 10° NE
Cosmos 2061 Rocket 4.1 20:54:04 10° S 21:00:18 88° ESE 21:06:41 10° N
Cosmos 2082 Rocket 2.4 20:55:42 10° SW 21:01:25 79° WNW 21:07:11 10° NNE
USA 306 1.5 20:59:28 10° W 21:02:31 77° N 21:04:29 10° ENE
Cosmos 2237 Rocket 4.5 21:08:46 10° NNW 21:12:35 18° NNE 21:16:24 10° ENE
CZ-4B R/B 2.4 21:09:42 13° SSE 21:12:41 89° ENE 21:16:12 10° NNW
USA 186 2.9 21:11:32 10° SSW 21:14:03 33° W 21:16:35 10° NNW
Okean O Rocket 2.6 21:12:20 10° S 21:16:25 42° W 21:20:32 10° NNW
Cosmos 2228 4.3 21:16:12 10° SW 21:20:04 40° WNW 21:23:57 10° N
Cosmos 1805 2.8 21:16:50 10° N 21:20:05 63° ENE 21:22:21 18° SSE
NOSS 3-3 (C) 3.8 21:15:46 10° SW 21:21:07 84° SE 21:27:39 10° NE
Cosmos 2278 3.8 21:15:46 10° NNW 21:21:30 74° WSW 21:26:23 14° SSE
Meteor 1-5 Rocket 4.3 21:18:38 10° N 21:24:22 73° ENE 21:29:21 15° SSE
COSMOS 2428 4.2 21:19:30 10° NNW 21:24:29 30° NE 21:29:26 10° E
SL-16 R/B 2.7 21:20:24 10° NW 21:25:58 57° WSW 21:30:55 13° S
Okean 1-7 Rocket 3.7 21:22:42 10° N 21:27:10 66° ENE 21:30:35 17° SSE
Cosmos 1544 Rocket 3.7 21:23:43 10° SSW 21:28:03 75° WNW 21:32:24 10° N
CZ-2C R/B 1.8 21:27:13 21° SSE 21:28:54 76° ENE 21:31:41 10° NNW
NOSS 3-4 (A) 3.9 21:25:45 10° NW 21:32:18 73° SW 21:38:39 16° SSE
NOSS 3-4 (C) 3.9 21:26:22 10° NW 21:32:57 74° SW 21:39:18 16° SSE
Cosmos-2242 4.4 21:34:03 16° ESE 21:35:54 22° E 21:39:06 10° NE
Cosmos 1891 Rocket 4.5 21:31:10 10° S 21:37:17 86° W 21:43:21 10° N
Okean-O 4.3 21:33:40 10° SSW 21:37:28 29° W 21:41:19 10° NNW
Cosmos 2034 Rocket 4.5 21:32:54 15° SSE 21:37:48 46° E 21:43:47 10° NNE
Cosmos 1933 3.5 21:37:27 10° SSW 21:41:14 67° WNW 21:45:03 10° N
Ariane Rocket 3.2 21:38:06 14° S 21:42:28 66° WSW 21:47:32 10° NNW
COSMOS 2406 3.4 21:36:49 10° SW 21:42:34 78° WNW 21:48:21 10° NNE
ATLAS 2AS CENTAUR R/B 4.4 21:37:18 10° WNW 21:43:30 35° N 21:49:40 10° NE
SPOT 3 Rocket 4.2 21:41:43 11° S 21:46:30 50° W 21:51:30 10° NNW
Nadezhda 4 Rocket 4.0 21:45:09 10° N 21:51:18 86° W 21:56:12 17° S
Cosmos 2333 Rocket 3.1 21:48:32 10° NW 21:53:50 41° WSW 21:58:17 14° S
Cosmos 1825 Rocket 3.6 21:52:01 10° NNW 21:56:22 79° W 21:59:17 21° S
Cosmos 1470 4.4 21:54:30 10° NNE 21:56:48 17° ENE 21:58:12 14° E
Helios 1B rocket 3.2 21:55:11 20° ESE 21:56:55 31° ENE 22:00:04 10° N
Cosmos 1763 Rocket 3.8 21:53:12 17° S 21:57:03 49° ESE 22:02:07 10° NE
Cosmos 1536 3.6 21:54:03 10° N 21:57:29 35° ENE 21:59:12 22° ESE
Okean 1 3.0 21:56:18 24° S 21:58:18 67° E 22:01:53 10° NNE
Cosmos 1707 3.1 21:59:51 25° ESE 22:00:11 26° E 22:02:38 10° NNE
Cosmos 1461 3.0 21:58:35 10° SW 22:02:15 63° NW 22:05:55 10° NE
Cosmos 1833 4.4 21:57:58 15° S 22:02:25 51° ESE 22:07:51 10° NE
Cosmos 1953 Rocket 3.5 21:58:05 10° N 22:02:28 73° ENE 22:04:56 25° SSE
Cosmos 44 3.6 21:57:48 10° NW 22:03:15 80° NE 22:06:56 20° SE
Cosmos 990 Rocket 3.9 21:58:23 10° NNW 22:03:35 86° WSW 22:06:54 23° SSE
Cosmos 2360 Rocket 2.7 22:02:05 10° NW 22:07:35 52° WSW 22:11:23 20° S
CZ-4B R/B 4.5 22:05:27 13° SSW 22:09:22 37° W 22:13:52 10° NNW
Cosmos 2195 Rocket 4.5 22:03:16 10° N 22:09:32 90° ENE 22:13:53 21° S
Cosmos 2322 4.2 22:04:00 10° NNW 22:09:36 53° NE 22:13:47 18° ESE
ISS -3.8 22:09:22 10° W 22:12:42 66° S 22:14:19 27° ESE
USA 290 2.0 22:12:10 24° SSW 22:13:55 89° ESE 22:17:04 10° NNE
Cosmos 2026 Rocket 4.0 22:07:29 10° N 22:13:55 84° E 22:18:17 22° SSE
BREEZE-M DEB (TANK) 2.5 22:11:51 10° WSW 22:13:11 25° SW 22:13:11 25° SW
Cosmos 2058 Rocket 3.5 22:14:25 27° SSE 22:16:23 46° E 22:20:32 10° NNE
CZ-4C R/B 4.1 22:14:10 10° WNW 22:18:44 32° N 22:24:32 10° NE
Helios 1A 3.0 22:17:03 10° NNE 22:20:54 53° E 22:22:30 31° SSE
Cosmos 2219 Rocket 2.4 22:15:28 10° NW 22:21:04 63° WSW 22:24:29 24° S
Cosmos 1975 4.0 22:20:44 10° N 22:23:58 28° ENE 22:25:24 21° ESE
Cosmos 2098 Rocket 4.0 22:21:05 10° SSW 22:25:36 44° WNW 22:29:32 10° N
Cosmos 1076 Rocket 3.9 22:21:30 10° NNW 22:25:40 54° W 22:28:03 23° SSW
KORONAS-FOTON 4.1 22:25:06 34° SE 22:25:51 39° E 22:29:03 10° NNE
USA 306 3.1 22:27:25 10° WNW 22:28:32 21° WNW 22:28:32 21° WNW
RESURS DK-1 2.7 22:26:39 10° NNW 22:30:35 56° NE 22:32:35 26° ESE
ARIANE 5 R/B 3.2 22:32:16 25° SE 22:34:32 47° ENE 22:38:51 10° N
ALOS 2 3.4 22:33:58 23° ESE 22:36:13 41° ENE 22:40:22 10° N
Cosmos 2322 Rocket 3.5 22:34:17 10° NW 22:39:08 30° WSW 22:42:34 17° SSW
Cosmos 1766 3.3 22:41:44 10° NNW 22:44:52 50° W 22:45:46 37° SSW
SL-16 R/B 4.4 22:40:54 10° NNW 22:45:15 21° NNE 22:49:33 10° E
Cosmos 372 Rocket 3.9 22:40:10 10° NNW 22:45:19 84° WSW 22:47:53 30° SSE
Cosmos 1271 Rocket 2.9 22:46:13 38° ESE 22:46:45 41° E 22:49:58 10° NNE
Cosmos 1842 2.9 22:47:39 47° SE 22:48:04 51° E 22:51:09 10° NNE
Cosmos 1726 Rocket 4.4 22:49:27 16° SW 22:52:18 40° WNW 22:56:10 10° N
Meteor 2-9 Rocket 4.2 22:47:39 10° N 22:53:02 71° ENE 22:55:56 29° SSE
Spot 4 3.9 22:51:57 30° SSE 22:54:17 71° ENE 22:59:05 10° NNW
Cosmos 540 Rocket 3.7 22:52:54 15° SW 22:57:13 68° WNW 23:02:22 10° NNE
Cosmos 2237 Rocket 2.9 22:52:31 10° NNW 22:58:03 50° NE 23:02:17 17° ESE
Aureole 1 Rocket 4.2 22:53:30 10° NNW 22:59:04 57° WSW 23:02:46 26° S
BREEZE-M DEB (TANK) 4.5 22:43:47 10° SW 23:00:37 58° SSE 23:04:46 10° E
Cosmos 1092 Rocket 4.4 22:55:17 10° NNW 23:01:18 57° W 23:05:07 23° SSW
Cosmos 1980 4.2 22:56:40 10° NNW 23:02:15 55° NE 23:06:13 19° SE
CZ-2C R/B 3.8 22:58:57 16° ESE 23:02:27 34° ENE 23:07:06 10° N
ARGOS Delta rocket 4.4 22:59:11 10° NNE 23:04:12 51° E 23:06:31 30° SSE
Cosmos 1937 Rocket 3.4 23:01:45 10° NNW 23:06:56 84° ENE 23:09:26 31° SSE
NOSS 8 (H) 4.4 23:05:20 10° NW 23:08:11 58° NE 23:08:57 41° E
COSMOS 2428 2.7 23:03:35 10° NNW 23:09:18 76° WSW 23:12:10 30° SSE
Meteor 2-2 Rocket 4.5 23:05:51 21° SSW 23:09:41 69° WNW 23:15:29 10° N
Geosat 4.1 23:06:09 10° NNE 23:11:10 74° NW 23:15:10 16° SW
NOSS 0 Rocket 3.9 23:05:40 10° NW 23:11:54 88° SW 23:15:26 27° SSE
Cosmos-2242 3.8 23:10:18 22° SW 23:12:38 44° WNW 23:16:36 10° N
Cosmos 2227 Rocket 4.1 23:11:04 12° ESE 23:12:47 14° E 23:15:33 10° ENE
Meteor 1-11 Rocket 3.8 23:07:09 10° N 23:12:51 68° ENE 23:15:45 29° SSE
Cosmos 468 Rocket 4.0 23:10:31 23° SSW 23:13:51 84° WNW 23:19:08 10° NNE
MetOp-A 4.2 23:18:10 28° SE 23:20:35 57° ENE 23:25:09 10° N
Cosmos 2263 Rocket 4.4 23:22:34 10° E 23:22:50 10° E 23:23:06 10° E
Cosmos 1812 Rocket 3.6 23:25:18 39° SSE 23:26:48 66° E 23:31:12 10° NNE
Cosmos 1238 Rocket 4.2 23:25:54 24° ESE 23:27:04 28° E 23:30:48 10° NNE
Helios 1B rocket 3.5 23:29:08 23° WSW 23:29:56 25° W 23:32:53 10° NW
Cosmos 1470 3.1 23:27:47 10° NNW 23:30:53 38° W 23:31:24 35° WSW
USA 234 3.7 23:25:27 10° ENE 23:31:36 42° SE 23:34:29 28° S
Cosmos 1707 4.3 23:31:20 14° W 23:32:27 17° WNW 23:34:26 10° NNW
Cosmos 1536 4.4 23:29:37 10° NW 23:32:31 22° W 23:33:43 19° WSW
SeaSat 1 3.5 23:28:37 12° ESE 23:32:49 42° NE 23:37:26 10° NNW
CZ-2C R/B 3.8 23:27:34 10° NNE 23:33:09 48° E 23:35:48 29° SSE
ACS3 Solar Sail 3.4 23:29:30 10° NE 23:33:59 21° E 23:37:20 14° SE
Meteor 1-27 Rocket 4.2 23:32:34 29° SSE 23:35:16 49° E 23:40:46 10° NNE
NOSS 8 (E) 4.1 23:32:23 10° NW 23:35:18 74° NE 23:35:47 57° ESE
ATLAS 2AS CENTAUR R/B 4.1 23:29:44 10° NW 23:36:03 38° NNE 23:42:20 10° E
Cosmos 2221 2.4 23:35:23 39° SSW 23:36:53 77° WNW 23:41:06 10° N
CZ-2C R/B 3.9 23:35:39 10° N 23:40:04 63° WNW 23:42:14 29° SW
Cosmos 1898 Rocket 4.1 23:35:22 10° NW 23:40:16 43° WSW 23:42:13 30° SSW
Cosmos 2279 Rocket 4.2 23:37:49 24° SSW 23:41:41 65° WNW 23:47:56 10° N
Cosmos 2297 Rocket 2.5 23:43:29 32° SSE 23:45:44 50° ESE 23:51:11 10° NE
ISS -1.6 23:46:17 10° W 23:47:15 16° WSW 23:47:15 16° WSW
Meteor 2-20 4.4 23:46:32 31° S 23:49:39 75° E 23:55:44 10° NNE
NOSS 8 (F) 3.9 23:48:29 10° NW 23:51:25 87° SW 23:51:35 78° SSE
SAR-Lupe-2 4.0 23:53:11 40° WSW 23:53:32 41° W 23:56:43 10° NNW
Meteor 2-10 Rocket 4.2 23:48:17 10° N 23:53:42 54° ENE 23:57:08 23° SE
GP-B 3.0 23:50:05 10° N 23:54:30 82° W 23:56:01 40° S
